Flag for Greece Weather past 2 weeks in Piraeus, Greece

Now
61 °F

Partly sunny.


Feels Like: 61 °F
Forecast: 47 / 61 °F
Wind: 12 mph from Southeast

Location: Elefsis Airport

Current Time: Mar 4, 2015 at 3:34:06 PM

Latest Report: Mar 4, 2015 at 2:50 PM


Visibility: N/A

Pressure: 30.24 "Hg

Humidity: 48%

Dew point: 41 °F

Location of PiraeusLocation

Historic Weather in Piraeus — Graph

°F

Piraeus temperature yesterday

Maximum temperature yesterday: 70 °F (at 1:50 PM)
Minimum temperature yesterday: 50 °F (at 3:50 AM)
Average temperature yesterday: 61 °F

Past Weeks' High & Low Weather Summary

 TemperatureHumidityPressure
High70 °F (Mar 3, 1:50 PM)100% (Feb 23, 4:50 AM)30.48 "Hg (Feb 23, 4:50 AM)
Low30 °F (Feb 19, 5:20 AM)19% (Feb 20, 12:20 PM)29.65 "Hg (Feb 24, 3:50 PM)
Average51 °F67%30.01 "Hg
* Reported Feb 17 2:50 PM — Mar 4 2:20 PM, Piraeus, Weather by CustomWeather, © 2015

Note: Actual official high and low records may vary slightly from our data, if they occured in-between our weather recording intervals... More about our weather records

Advertising

Piraeus weather history for previous 24 hours

 ConditionsComfort  
Time TempWeatherWind HumidityBarometerVisibility
2:20 PM
Wed, Mar 4
61 °FPartly sunny.6 mph48%30.24 "HgN/A
1:50 PM63 °FPartly sunny.No wind39%30.24 "HgN/A
1:20 PM61 °FPartly sunny.6 mph45%30.27 "HgN/A
12:50 PM63 °FPartly sunny.8 mph39%30.27 "HgN/A
12:20 PM61 °FPartly sunny.9 mph45%30.30 "HgN/A
11:50 AM61 °FPartly sunny.7 mph42%30.30 "HgN/A
11:20 AM59 °FPartly sunny.9 mph48%30.30 "HgN/A
10:50 AM59 °FPartly sunny.9 mph48%30.30 "HgN/A
10:20 AM57 °FPartly sunny.7 mph48%30.30 "HgN/A
9:50 AM57 °FPartly sunny.7 mph48%30.30 "HgN/A
9:20 AM55 °FPartly sunny.9 mph51%30.30 "HgN/A
8:50 AM55 °FPartly sunny.12 mph47%30.30 "HgN/A
8:20 AM54 °FPartly sunny.14 mph51%30.27 "HgN/A
7:50 AM54 °FScattered clouds.9 mph51%30.27 "HgN/A
7:20 AM52 °FPassing clouds.14 mph50%30.24 "HgN/A
6:50 AM54 °FPassing clouds.13 mph47%30.24 "HgN/A
6:20 AM54 °FPassing clouds.12 mph44%30.24 "HgN/A
5:50 AM52 °FPassing clouds.12 mph47%30.24 "HgN/A
5:20 AM54 °FPassing clouds.13 mph44%30.21 "HgN/A
4:50 AM54 °FPassing clouds.14 mph44%30.21 "HgN/A
4:20 AM54 °FPassing clouds.10 mph47%30.21 "HgN/A
3:50 AM54 °FPassing clouds.12 mph47%30.21 "HgN/A
3:20 AM55 °FPassing clouds.8 mph44%30.21 "HgN/A
2:50 AM55 °FPassing clouds.13 mph44%30.21 "HgN/A
2:20 AM55 °FPassing clouds.No wind44%30.21 "HgN/A
1:50 AM54 °FPassing clouds.6 mph54%30.18 "HgN/A
1:20 AM55 °FPassing clouds.8 mph51%30.18 "HgN/A
12:50 AM55 °FPassing clouds.5 mph59%30.18 "HgN/A
12:20 AM54 °FPassing clouds.6 mph67%30.18 "HgN/A
11:50 PM
Tue, Mar 3
55 °FPassing clouds.5 mph63%30.18 "HgN/A
11:20 PM54 °FPassing clouds.No wind72%30.18 "HgN/A
10:50 PM54 °FPassing clouds.No wind72%30.18 "HgN/A
10:20 PM54 °FPassing clouds.No wind77%30.15 "HgN/A
9:50 PM57 °FPassing clouds.No wind63%30.15 "HgN/A
9:20 PM61 °FPassing clouds.No wind52%30.12 "HgN/A
8:50 PM63 °FPassing clouds.6 mph52%30.12 "HgN/A
8:20 PM59 °FPassing clouds.6 mph59%30.12 "HgN/A
7:50 PM61 °FPassing clouds.8 mph55%30.09 "HgN/A
7:20 PM61 °FPassing clouds.5 mph63%30.07 "HgN/A
6:50 PM61 °FPassing clouds.7 mph59%30.07 "HgN/A
6:20 PM63 °FPassing clouds.9 mph56%30.07 "HgN/A
5:50 PM66 °FPassing clouds.9 mph46%30.04 "HgN/A
5:20 PM68 °FPassing clouds.12 mph43%30.04 "HgN/A
4:50 PM68 °FPassing clouds.12 mph40%30.01 "HgN/A
4:20 PM68 °FScattered clouds.14 mph43%30.01 "HgN/A
3:50 PM68 °FScattered clouds.16 mph43%30.01 "HgN/A
3:20 PM68 °FScattered clouds.18 mph43%30.01 "HgN/A
Weather by CustomWeather, © 2015

See weather overviewHow to use our weather pages